Date String (YYYY-MM-DD hh:mm:ss) UTC,Instrument flags,Ambient pressure (hPa),Sample flow (lpm),Bypass flow (lpm),Sample temperature (°C),Ambient temperature (°C),ASC tube jacket temperature (°C),LED temperature (°C),Box temperature (°C),Sample RH (%),Span deviation,Mass concentration (μg/m³),Mass concentration (μg/m³),Mass concentration (μg/m³)
DateTimeUTC,F1_M11,P_M11,Q1_M11,Q2_M11,T1_M11,T2_M11,T3_M11,T4_M11,T5_M11,U1_M11,ZSPAN_M11,X0_M11,X2_M11,X1_M11
2022-01-20 18:00:00,,0830.6,4.99,0.00,22.0,21.9,00.0,30.9,23.8,11.3,-000.1,0018.17,0013.41,0012.34
2022-01-20 18:01:00,,0830.5,5.01,0.00,22.0,21.8,00.0,30.9,23.8,11.3,-000.1,0018.28,0013.41,0012.37
2022-01-20 18:02:00,,0830.6,4.99,0.00,22.0,21.7,00.0,30.9,23.8,11.5,-000.0,0018.13,0013.39,0012.38
2022-01-20 18:03:00,,0830.5,4.99,0.00,22.0,21.7,00.0,30.9,23.8,11.6,-000.0,0018.22,0013.42,0012.41
2022-01-20 18:04:00,,0830.6,5.01,0.00,22.0,21.6,00.0,30.9,23.7,11.6,0000.0,0018.08,0013.40,0012.43
2022-01-20 18:05:00,,0830.5,4.99,0.00,22.0,21.5,00.0,30.9,23.7,11.5,0000.0,0018.02,0013.41,0012.46
2022-01-20 18:06:00,,0830.6,4.99,0.00,22.0,21.5,00.0,30.9,23.7,11.5,-000.0,0018.13,0013.49,0012.52
2022-01-20 18:07:00,,0830.6,5.02,0.00,22.0,21.4,00.0,30.9,23.6,11.5,0000.1,0018.42,0013.55,0012.59
2022-01-20 18:08:00,,0830.5,4.99,0.00,21.9,21.4,00.0,30.9,23.5,11.5,0000.1,0018.29,0013.52,0012.57
2022-01-20 18:09:00,,0830.5,5.00,0.00,21.9,21.3,00.0,30.9,23.5,11.4,0000.2,0018.47,0013.62,0012.60
2022-01-20 18:10:00,,0830.6,5.00,0.00,21.8,21.2,00.0,30.9,23.5,11.5,0000.3,0018.43,0013.61,0012.62
2022-01-20 18:11:00,,0830.5,5.01,0.00,21.8,21.1,00.0,30.9,23.4,11.4,0000.5,0017.95,0013.54,0012.60
2022-01-20 18:12:00,,0830.5,4.99,0.00,21.8,21.0,00.0,30.8,23.4,11.5,0000.5,0017.71,0013.52,0012.58
2022-01-20 18:13:00,,0830.5,4.99,0.00,21.7,21.2,00.0,30.8,23.4,11.5,0000.3,0017.60,0013.48,0012.58
2022-01-20 18:14:00,,0830.5,5.01,0.00,21.8,22.1,00.0,30.8,23.6,11.6,0000.2,0017.51,0013.45,0012.57
2022-01-20 18:15:00,,0830.5,5.01,0.00,22.0,23.0,00.0,30.9,24.0,11.7,0000.1,0017.45,0013.42,0012.55
2022-01-20 18:16:00,,0830.5,4.99,0.00,22.2,23.2,00.0,30.9,24.1,11.7,0000.0,0017.38,0013.40,0012.54
2022-01-20 18:17:00,,0830.5,5.01,0.00,22.2,23.0,00.0,31.0,24.2,11.6,0000.1,0017.16,0013.30,0012.51
2022-01-20 18:18:00,,0830.4,4.99,0.00,22.2,22.7,00.0,31.0,24.1,11.5,0000.0,0016.87,0013.21,0012.44
2022-01-20 18:19:00,,0830.6,5.00,0.00,22.2,22.4,00.0,31.0,24.0,11.5,0000.1,0016.76,0013.19,0012.43
2022-01-20 18:20:00,,0830.4,4.99,0.00,22.2,22.1,00.0,31.0,23.9,11.4,-000.1,0016.50,0013.09,0012.40
2022-01-20 18:21:00,,0830.4,5.00,0.00,22.1,21.8,00.0,31.0,23.8,11.2,-000.1,0016.27,0013.00,0012.34
2022-01-20 18:22:00,,0830.3,4.99,0.00,22.0,21.5,00.0,31.0,23.7,11.2,-000.1,0016.14,0012.94,0012.29
2022-01-20 18:23:00,,0830.6,5.01,0.00,22.0,21.3,00.0,31.0,23.6,11.2,-000.2,0016.12,0012.91,0012.26
2022-01-20 18:24:00,,0830.4,5.00,0.00,22.0,21.3,00.0,31.0,23.6,11.3,-000.1,0016.05,0012.86,0012.21
2022-01-20 18:25:00,,0830.4,4.99,0.00,22.0,21.3,00.0,31.0,23.6,11.4,0000.0,0015.88,0012.80,0012.19
2022-01-20 18:26:00,,0830.4,5.02,0.00,21.9,21.3,00.0,30.9,23.6,11.4,0000.1,0015.74,0012.74,0012.16
2022-01-20 18:27:00,,0830.4,5.00,0.00,21.9,21.3,00.0,30.9,23.6,11.4,0000.2,0015.64,0012.71,0012.14
2022-01-20 18:28:00,,0830.3,5.01,0.00,21.9,21.3,00.0,30.9,23.6,11.3,0000.3,0015.60,0012.69,0012.12
2022-01-20 18:29:00,,0830.3,5.00,0.00,21.9,21.3,00.0,30.9,23.6,11.3,0000.1,0015.53,0012.67,0012.12
2022-01-20 18:30:00,,0830.4,5.01,0.00,21.9,21.3,00.0,30.9,23.6,11.3,-000.1,0015.55,0012.68,0012.13
2022-01-20 18:31:00,,0830.4,4.99,0.00,21.9,21.3,00.0,30.9,23.6,11.4,0000.1,0015.70,0012.75,0012.19
2022-01-20 18:32:00,,0830.3,4.99,0.00,21.9,21.3,00.0,30.9,23.6,11.4,0000.1,0015.84,0012.82,0012.26
2022-01-20 18:33:00,,0830.2,5.00,0.00,21.9,21.3,00.0,30.9,23.6,11.5,0000.1,0015.93,0012.89,0012.32
2022-01-20 18:34:00,,0830.2,5.00,0.00,21.9,21.3,00.0,30.9,23.6,11.6,0000.1,0015.86,0012.91,0012.38
2022-01-20 18:35:00,,0830.2,5.00,0.00,21.8,21.3,00.0,30.9,23.5,11.7,-000.0,0015.92,0012.95,0012.42
2022-01-20 18:36:00,,0830.1,5.01,0.00,21.8,21.2,00.0,30.9,23.5,11.7,-000.1,0016.02,0012.98,0012.45
2022-01-20 18:37:00,,0830.0,5.01,0.00,21.8,21.3,00.0,30.8,23.6,11.7,-000.0,0016.19,0013.03,0012.49
2022-01-20 18:38:00,,0830.1,4.99,0.00,21.8,21.4,00.0,30.8,23.6,11.7,-000.0,0016.23,0013.04,0012.50
2022-01-20 18:39:00,,0830.1,5.00,0.00,22.0,22.2,00.0,30.9,23.8,11.8,-000.1,0016.23,0013.05,0012.51
2022-01-20 18:40:00,,0830.0,4.99,0.00,22.1,23.0,00.0,30.9,24.1,11.7,0000.1,0016.27,0013.05,0012.51
2022-01-20 18:41:00,,0830.1,4.99,0.00,22.3,23.2,00.0,31.0,24.3,11.5,0000.3,0016.28,0013.03,0012.49
2022-01-20 18:42:00,,0830.0,5.00,0.00,22.3,23.0,00.0,31.0,24.3,11.4,0000.1,0016.29,0013.03,0012.48
2022-01-20 18:43:00,,0830.0,5.01,0.00,22.3,22.8,00.0,31.0,24.3,11.4,0000.2,0016.32,0013.04,0012.47
2022-01-20 18:44:00,,0830.0,4.99,0.00,22.3,22.6,00.0,31.1,24.2,11.4,0000.2,0016.34,0013.03,0012.46
2022-01-20 18:45:00,,0830.0,5.02,0.00,22.3,22.4,00.0,31.1,24.2,11.4,0000.1,0016.35,0013.02,0012.45
2022-01-20 18:46:00,,0830.0,4.99,0.00,22.3,22.3,00.0,31.1,24.1,11.4,0000.4,0016.47,0013.06,0012.44
2022-01-20 18:47:00,,0829.9,4.99,0.00,22.3,22.1,00.0,31.1,24.1,11.4,0000.5,0016.35,0013.03,0012.43
2022-01-20 18:48:00,,0829.8,5.01,0.00,22.3,22.0,00.0,31.1,24.1,11.4,0000.5,0016.52,0013.02,0012.42
2022-01-20 18:49:00,,0829.8,5.00,0.00,22.3,21.9,00.0,31.1,24.0,11.5,0000.5,0016.58,0013.03,0012.41
2022-01-20 18:50:00,,0829.8,4.99,0.00,22.3,21.9,00.0,31.1,24.0,11.5,0000.5,0016.63,0013.04,0012.40
2022-01-20 18:51:00,,0829.8,5.02,0.00,22.3,21.8,00.0,31.1,24.0,11.5,0000.3,0016.67,0013.09,0012.43
2022-01-20 18:52:00,,0829.8,5.00,0.00,22.2,21.8,00.0,31.2,24.0,11.7,0000.2,0016.71,0013.13,0012.45
2022-01-20 18:53:00,,0829.7,5.00,0.00,22.2,21.7,00.0,31.2,24.0,11.7,0000.2,0016.67,0013.13,0012.45
2022-01-20 18:54:00,,0829.8,4.99,0.00,22.2,21.7,00.0,31.2,24.0,11.8,0000.3,0016.70,0013.15,0012.49
2022-01-20 18:55:00,,0829.7,5.00,0.00,22.2,21.7,00.0,31.2,24.0,11.9,0000.3,0016.75,0013.19,0012.50
2022-01-20 18:56:00,,0829.6,5.00,0.00,22.2,21.6,00.0,31.1,24.0,11.9,0000.4,0016.77,0013.19,0012.49
2022-01-20 18:57:00,,0829.6,5.00,0.00,22.2,21.6,00.0,31.2,23.9,11.9,0000.4,0016.56,0013.13,0012.48
2022-01-20 18:58:00,,0829.5,5.00,0.00,22.2,21.6,00.0,31.2,23.9,11.8,0000.6,0016.51,0013.10,0012.46
2022-01-20 18:59:00,,0829.6,5.01,0.00,22.2,21.6,00.0,31.1,23.9,11.9,0000.6,0016.21,0013.08,0012.44
